Regional Weather Roundup
Issued by NWS Charleston, SC

Current Version | Previous Version | Graphics & Text | Print | Product List | Glossary On
Versions: 1 2 3 4 5 6 7 8 9 10 11 12 13 14 15 16 17 18 19 20 21 22 23 24 25 26 27 28 29 30 31 32 33 34 35 36 37 38 39 40 41 42 43 44 45 46 47 48 49 50
000
ASUS42 KCHS 070712
RWRCHS

REGIONAL WEATHER ROUNDUP
NATIONAL WEATHER SERVICE CHARLESTON SC
200 AM EST WED DEC 07 2016

NOTE: "FAIR" INDICATES FEW OR NO CLOUDS BELOW 12,000 FEET WITH NO
SIGNIFICANT WEATHER AND/OR OBSTRUCTIONS TO VISIBILITY.

NOT ALL STATIONS ARE QUALITY CONTROLLED. USE DATA WITH CAUTION...
ESPECIALLY DEWPOINT OBSERVATIONS.

SCZ027-030-031-034>040-042>050-070800-
...SOUTHEAST SOUTH CAROLINA...

CITY           SKY/WX    TMP DP  RH WIND       PRES   REMARKS
N CHARLESTON   CLOUDY    54  51  90 NW13      29.93R
WATERFRONT PRK   N/A     54  53  97 NW6       29.91R
MOUNT PLEASANT NOT AVBL
JOHNS ISLAND   CLOUDY    55  54  94 NW7       29.93R
PINOPOLIS        N/A     54  52  94 NW10      29.84S
MONCKS CORNER  CLOUDY    52  50  93 NW3       29.93R
SUMMERVILLE    CLOUDY    54  54 100 NW3       29.95R
BEAUFORT MCAS  CLEAR     54  52  93 N6        29.94R
BEAUFORT ARPT  FAIR      54  52  94 N6        29.93R
HILTON HEAD IS CLEAR     54  54 100 CALM      29.95R
WALTERBORO     CLOUDY    54 N/A N/A NW5       29.95R FOG
ALLENDALE      CLOUDY    52  52 100 CALM      29.94R FOG

...SOUTHERN MIDLANDS AND PEE DEE...

CITY           SKY/WX    TMP DP  RH WIND       PRES   REMARKS
GEORGETOWN     CLOUDY    52  48  87 NW9G16    29.92R
KINGSTREE      CLOUDY    50  45  81 W9        29.93R
ORANGEBURG     CLOUDY    51  50  96 CALM      29.94R
BARNWELL       NOT AVBL
AIKEN          FOG       46  46 100 CALM      29.96R VSB 1/2
MANNING        CLOUDY    50  46  87 NW3       29.94R
COLUMBIA       CLOUDY    50  47  89 CALM      29.93R
SUMTER         CLOUDY    49  46  91 NW6       29.91R
FLORENCE       CLOUDY    49  47  93 N6        29.93R
MYRTLE BEACH   CLOUDY    52  46  82 NW15      29.93R
N MYRTLE BEACH CLOUDY    50  48  93 VRB7      29.90R

$$

GAZ063-065-086>088-099>101-113>116-118-119-134>141-150-070800-
...SOUTHEAST GEORGIA...

CITY           SKY/WX    TMP DP  RH WIND       PRES   REMARKS
SAVANNAH ARPT  CLEAR     54  52  93 W3        29.95R
HUNTER AAF     CLEAR     54  54 100 CALM      29.92R FOG
FORT STEWART   PTCLDY    54  52  94 CALM      29.93R
STATESBORO     NOT AVBL
SYLVANIA       SUNNY    N/A N/A N/A CALM      29.95R
CLAXTON        FAIR     N/A N/A N/A CALM      29.95S HAZE

...CSRA...CENTRAL AND FAR SOUTHEAST GEORGIA...

CITY           SKY/WX    TMP DP  RH WIND       PRES   REMARKS
THOMSON        CLEAR     52  52 100 CALM      29.97R
AUGUSTA-BUSH   FOG       50  48  93 CALM      29.93R VSB 1/4
AUGUSTA-DANIEL FOG       51  48  89 NW3       29.94R VSB 1/4
SWAINSBORO     FAIR      54  54 100 CALM      29.95R
VIDALIA        CLOUDY    59  59 100 CALM      29.95S
EASTMAN        FAIR      55  55  99 CALM      29.99R FOG
HAZLEHURST     PTSUNNY   57  57 100 W3        29.95R
ALMA           PTCLDY    52  52 100 CALM      29.95S
WAYCROSS       PTCLDY    57  57 100 CALM      29.96R
JESUP          FAIR      57  57 100 NW3       29.95S
BAXLEY         MOCLDY    54  54 100 CALM      29.96R
BRUNSWICK      CLEAR     59  57  94 CALM      29.95S
SAINT SIMONS   CLEAR     60  55  83 NW3       29.94R

$$

SCZ027-028-034-036>038-045-046-048>050-GAZ119-141-070800-
...LAKE AND SUPPLEMENTAL COASTAL OBSERVATIONS...

STATION/POSITION TIME  TEMP    WIND        PRES    WAVE   SWELL
                       AIR SEA DIR/SP/G            HT/PER HT/PER/DIR
                 (UTC) (F)     (DEG/KT/KT) (MB)    (FT/S) (FT/S/D)
WINYAH BAY       NOT AVBL
LAKE MURRAY      0620   48      CALM  /  2 1012.5
ACE BASIN NERRS  0545   53     330/  1     1013.0
FORT PULASKI     0648   58 62  320/  6/  8 1014.0R
SAPELO ISLAND    0600   61     300/  3     1013.0

$$

ANZ835-935-AMZ111-154-330-350-352-354-370-450-454-472-070800-
...C-MAN AND BUOY OBSERVATIONS...

STATION/POSITION TIME  TEMP    WIND        PRES    WAVE   SWELL
                       AIR SEA DIR/SP/G            HT/PER HT/PER/DIR
                 (UTC) (F)     (DEG/KT/KT) (MB)    (FT/S) (FT/S/D)
BUOY 41004       0650   60 74  320/ 12/ 16 1012.1R   4/ 8   3/150/ 8
BUOY 41008       0650   64 65   30/  4/  4 1013.3R   2/ 6   2/170/ 6
FOLLY BEACH CMAN 0600   54     340/  6/  8 1013.2R
CAPERS NEARSHORE 0608   54 60  340/ 12/ 17 1012.3R
FRIPP NEARSHORE  0608   58 62  330/  8/ 12 1012.7R


STATION/POSITION TIME  TEMP    WIND        PRES    WAVE   SWELL
                       AIR SEA DIR/SP/G            HT/PER HT/PER/DIR
                 (UTC) (F)     (DEG/KT/KT) (MB)    (FT/S) (FT/S/D)
5E ST. MARYS GA  0700      66                N/A     2/ 6
FRYING PAN BUOY  0650   58 74  310/ 16/ 19 1011.5R   7/ 9   5/190/ 9
BUOY 41025       0650   58 74  300/ 25/ 33 1007.9R   8/ 6   3/ 80/ 9
CAPE LOOKOUT NC  0600   51     290/ 19/ 22 1009.4R
BUOY 41002       0650   76 74  250/ 21/ 27 1009.1R  11/ 9   7/240/ 9
BUOY 41010       NOT AVBL
ST AUGUSTINE FL  0700   61 67  260/  7/  9 1015.3R


$$




USA.gov is the U.S. government's official web portal to all federal, state and local government web resources and services.